Time,TemperatureF,DewpointF,PressureIn,WindDirection,WindDirectionDegrees,WindSpeedMPH,WindSpeedGustMPH,Humidity,HourlyPrecipIn,Conditions,Clouds,dailyrainin,SolarRadiationWatts/m^2,SoftwareType,DateUTC
2013-03-11 00:00:00,49.3,29.4,30.29,SE,142,4.0,4.0,46,0.00,,,0.00,0,Wunderground v.1.15,2013-03-11 04:00:00,
2013-03-11 00:01:00,49.3,29.4,30.28,SE,144,4.0,4.0,46,0.00,,,0.00,0,Wunderground v.1.15,2013-03-11 04:01:00,
2013-03-11 00:03:00,49.3,29.4,30.29,South,184,4.0,5.0,46,0.00,,,0.00,0,Wunderground v.1.15,2013-03-11 04:03:00,
2013-03-11 00:08:00,49.2,29.3,30.29,SE,128,5.0,5.0,46,0.00,,,0.00,0,Wunderground v.1.15,2013-03-11 04:08:00,
2013-03-11 00:10:00,49.2,29.3,30.29,SE,137,5.0,5.0,46,0.00,,,0.00,0,Wunderground v.1.15,2013-03-11 04:10:00,
2013-03-11 00:16:00,49.1,29.7,30.29,SE,136,5.0,7.0,47,0.00,,,0.00,0,Wunderground v.1.15,2013-03-11 04:16:00,
2013-03-11 00:22:00,48.8,30.0,30.28,ESE,117,5.0,7.0,48,0.00,,,0.00,0,Wunderground v.1.15,2013-03-11 04:22:00,
2013-03-11 00:28:00,48.5,29.7,30.28,SE,132,4.0,7.0,48,0.00,,,0.00,0,Wunderground v.1.15,2013-03-11 04:28:00,
2013-03-11 00:33:00,48.4,29.6,30.28,SSE,155,4.0,6.0,48,0.00,,,0.00,0,Wunderground v.1.15,2013-03-11 04:33:00,
2013-03-11 00:39:00,48.2,29.4,30.28,SE,138,5.0,7.0,48,0.00,,,0.00,0,Wunderground v.1.15,2013-03-11 04:39:00,
2013-03-11 00:45:00,48.1,29.3,30.28,SE,144,6.0,8.0,48,0.00,,,0.00,0,Wunderground v.1.15,2013-03-11 04:45:00,
2013-03-11 00:51:00,47.9,29.6,30.28,SSE,157,6.0,6.0,49,0.00,,,0.00,0,Wunderground v.1.15,2013-03-11 04:51:00,
2013-03-11 00:57:00,47.8,29.5,30.27,SE,129,6.0,8.0,49,0.00,,,0.00,0,Wunderground v.1.15,2013-03-11 04:57:00,
2013-03-11 01:02:00,47.7,30.0,30.27,SSE,147,6.0,6.0,50,0.00,,,0.00,0,Wunderground v.1.15,2013-03-11 05:02:00,
2013-03-11 01:07:00,47.5,29.8,30.26,SSE,149,5.0,6.0,50,0.00,,,0.00,0,Wunderground v.1.15,2013-03-11 05:07:00,
2013-03-11 01:13:00,47.4,29.7,30.27,SE,132,4.0,4.0,50,0.00,,,0.00,0,Wunderground v.1.15,2013-03-11 05:13:00,
2013-03-11 01:18:00,47.2,29.5,30.26,SSE,167,3.0,5.0,50,0.00,,,0.00,0,Wunderground v.1.15,2013-03-11 05:18:00,
2013-03-11 01:25:00,47.2,29.5,30.26,SE,138,2.0,5.0,50,0.00,,,0.00,0,Wunderground v.1.15,2013-03-11 05:25:00,
2013-03-11 01:31:00,47.2,29.5,30.26,SE,132,2.0,3.0,50,0.00,,,0.00,0,Wunderground v.1.15,2013-03-11 05:31:00,
2013-03-11 01:37:00,47.2,29.5,30.26,SE,142,2.0,6.0,50,0.00,,,0.00,0,Wunderground v.1.15,2013-03-11 05:37:00,
2013-03-11 01:42:00,47.2,29.5,30.26,SE,142,2.0,2.0,50,0.00,,,0.00,0,Wunderground v.1.15,2013-03-11 05:42:00,
2013-03-11 01:48:00,47.0,29.3,30.26,SE,142,1.0,2.0,50,0.00,,,0.00,0,Wunderground v.1.15,2013-03-11 05:48:00,
2013-03-11 01:53:00,46.9,29.2,30.26,SE,142,1.0,2.0,50,0.00,,,0.00,0,Wunderground v.1.15,2013-03-11 05:53:00,
2013-03-11 01:59:00,46.7,29.0,30.26,SE,142,1.0,2.0,50,0.00,,,0.00,0,Wunderground v.1.15,2013-03-11 05:59:00,
2013-03-11 02:05:00,46.4,28.3,30.26,NNW,334,1.0,2.0,49,0.00,,,0.00,0,Wunderground v.1.15,2013-03-11 06:05:00,
2013-03-11 02:11:00,46.0,27.9,30.27,NNW,331,1.0,1.0,49,0.00,,,0.00,0,Wunderground v.1.15,2013-03-11 06:11:00,
2013-03-11 02:17:00,45.7,28.1,30.27,NNW,331,2.0,3.0,50,0.00,,,0.00,0,Wunderground v.1.15,2013-03-11 06:17:00,
2013-03-11 02:23:00,45.6,28.0,30.27,NNW,327,1.0,1.0,50,0.00,,,0.00,0,Wunderground v.1.15,2013-03-11 06:23:00,
2013-03-11 02:28:00,45.5,27.9,30.26,NNW,327,1.0,1.0,50,0.00,,,0.00,0,Wunderground v.1.15,2013-03-11 06:28:00,
2013-03-11 02:33:00,45.5,28.4,30.26,NW,323,1.0,1.0,51,0.00,,,0.00,0,Wunderground v.1.15,2013-03-11 06:33:00,
2013-03-11 02:39:00,45.5,28.4,30.27,North,5,1.0,1.0,51,0.00,,,0.00,0,Wunderground v.1.15,2013-03-11 06:39:00,
2013-03-11 02:45:00,45.8,28.7,30.27,South,174,2.0,10.0,51,0.00,,,0.00,0,Wunderground v.1.15,2013-03-11 06:45:00,
2013-03-11 02:50:00,45.9,28.8,30.27,SSE,159,4.0,4.0,51,0.00,,,0.00,0,Wunderground v.1.15,2013-03-11 06:50:00,
2013-03-11 02:56:00,45.8,28.7,30.26,SE,142,4.0,5.0,51,0.00,,,0.00,0,Wunderground v.1.15,2013-03-11 06:56:00,
2013-03-11 03:01:00,45.7,28.6,30.26,SE,132,4.0,6.0,51,0.00,,,0.00,0,Wunderground v.1.15,2013-03-11 07:01:00,
2013-03-11 03:07:00,45.7,28.6,30.26,SE,143,3.0,6.0,51,0.00,,,0.00,0,Wunderground v.1.15,2013-03-11 07:07:00,
2013-03-11 03:13:00,45.6,28.5,30.25,SE,136,3.0,7.0,51,0.00,,,0.00,0,Wunderground v.1.15,2013-03-11 07:13:00,
2013-03-11 03:18:00,45.7,28.6,30.25,South,170,4.0,7.0,51,0.00,,,0.00,0,Wunderground v.1.15,2013-03-11 07:18:00,
2013-03-11 03:24:00,45.7,28.6,30.25,SSE,147,2.0,3.0,51,0.00,,,0.00,0,Wunderground v.1.15,2013-03-11 07:24:00,
2013-03-11 03:29:00,45.6,28.5,30.25,SSE,151,2.0,5.0,51,0.00,,,0.00,0,Wunderground v.1.15,2013-03-11 07:29:00,
2013-03-11 03:35:00,45.6,28.5,30.24,SE,138,4.0,6.0,51,0.00,,,0.00,0,Wunderground v.1.15,2013-03-11 07:35:00,
2013-03-11 03:41:00,45.6,28.5,30.24,SE,144,5.0,6.0,51,0.00,,,0.00,0,Wunderground v.1.15,2013-03-11 07:41:00,
2013-03-11 03:47:00,45.6,28.5,30.23,SE,143,4.0,6.0,51,0.00,,,0.00,0,Wunderground v.1.15,2013-03-11 07:47:00,
2013-03-11 03:53:00,45.6,28.5,30.23,SSE,150,2.0,3.0,51,0.00,,,0.00,0,Wunderground v.1.15,2013-03-11 07:53:00,
2013-03-11 03:58:00,45.5,28.4,30.23,ENE,71,1.0,3.0,51,0.00,,,0.00,0,Wunderground v.1.15,2013-03-11 07:58:00,
2013-03-11 04:04:00,45.4,27.8,30.23,ENE,68,1.0,1.0,50,0.00,,,0.00,0,Wunderground v.1.15,2013-03-11 08:04:00,
2013-03-11 04:09:00,45.1,27.6,30.23,NNW,343,1.0,1.0,50,0.00,,,0.00,0,Wunderground v.1.15,2013-03-11 08:09:00,
2013-03-11 04:15:00,45.0,27.9,30.23,NNW,332,1.0,4.0,51,0.00,,,0.00,0,Wunderground v.1.15,2013-03-11 08:15:00,
2013-03-11 04:21:00,44.9,27.4,30.23,NNW,340,1.0,1.0,50,0.00,,,0.00,0,Wunderground v.1.15,2013-03-11 08:21:00,
2013-03-11 04:26:00,44.7,27.7,30.23,North,5,1.0,1.0,51,0.00,,,0.00,0,Wunderground v.1.15,2013-03-11 08:26:00,
2013-03-11 04:32:00,44.7,28.1,30.23,NNW,340,1.0,2.0,52,0.00,,,0.00,0,Wunderground v.1.15,2013-03-11 08:32:00,
2013-03-11 04:38:00,44.6,27.6,30.23,North,355,1.0,2.0,51,0.00,,,0.00,0,Wunderground v.1.15,2013-03-11 08:38:00,
2013-03-11 04:43:00,44.4,27.9,30.23,North,350,1.0,1.0,52,0.00,,,0.00,0,Wunderground v.1.15,2013-03-11 08:43:00,
2013-03-11 04:48:00,44.6,28.5,30.22,South,180,2.0,4.0,53,0.00,,,0.00,0,Wunderground v.1.15,2013-03-11 08:48:00,
2013-03-11 04:53:00,44.7,29.1,30.22,South,171,2.0,3.0,54,0.00,,,0.00,0,Wunderground v.1.15,2013-03-11 08:53:00,
2013-03-11 04:58:00,44.7,29.5,30.22,SE,129,2.0,5.0,55,0.00,,,0.00,0,Wunderground v.1.15,2013-03-11 08:58:00,
2013-03-11 05:05:00,44.7,30.0,30.22,SE,146,2.0,3.0,56,0.00,,,0.00,0,Wunderground v.1.15,2013-03-11 09:05:00,
2013-03-11 05:11:00,44.6,29.9,30.22,South,183,2.0,2.0,56,0.00,,,0.00,0,Wunderground v.1.15,2013-03-11 09:11:00,
2013-03-11 05:17:00,44.7,30.0,30.22,SE,133,3.0,6.0,56,0.00,,,0.00,0,Wunderground v.1.15,2013-03-11 09:17:00,
2013-03-11 05:23:00,44.7,30.4,30.22,SE,130,3.0,6.0,57,0.00,,,0.00,0,Wunderground v.1.15,2013-03-11 09:23:00,
2013-03-11 05:29:00,44.6,31.1,30.22,SE,140,5.0,9.0,59,0.00,,,0.00,0,Wunderground v.1.15,2013-03-11 09:29:00,
2013-03-11 05:34:00,44.5,31.1,30.22,SSE,167,5.0,7.0,59,0.00,,,0.00,0,Wunderground v.1.15,2013-03-11 09:34:00,
2013-03-11 05:39:00,44.4,31.4,30.21,SE,139,3.0,3.0,60,0.00,,,0.00,0,Wunderground v.1.15,2013-03-11 09:39:00,
2013-03-11 05:46:00,44.2,30.8,30.21,SSW,202,2.0,5.0,59,0.00,,,0.00,0,Wunderground v.1.15,2013-03-11 09:46:00,
2013-03-11 05:52:00,44.0,31.0,30.22,SE,132,2.0,4.0,60,0.00,,,0.00,0,Wunderground v.1.15,2013-03-11 09:52:00,
2013-03-11 05:58:00,43.9,31.7,30.22,SSE,167,2.0,4.0,62,0.00,,,0.00,0,Wunderground v.1.15,2013-03-11 09:58:00,
2013-03-11 06:03:00,43.9,31.7,30.22,South,188,2.0,2.0,62,0.00,,,0.00,0,Wunderground v.1.15,2013-03-11 10:03:00,
2013-03-11 06:09:00,43.9,31.7,30.22,South,172,1.0,3.0,62,0.00,,,0.00,0,Wunderground v.1.15,2013-03-11 10:09:00,
2013-03-11 06:14:00,43.8,31.6,30.22,North,351,1.0,4.0,62,0.00,,,0.00,0,Wunderground v.1.15,2013-03-11 10:14:00,
2013-03-11 06:20:00,43.7,31.9,30.21,SSW,195,1.0,3.0,63,0.00,,,0.00,0,Wunderground v.1.15,2013-03-11 10:20:00,
2013-03-11 06:26:00,43.7,32.3,30.21,SSW,213,2.0,7.0,64,0.00,,,0.00,0,Wunderground v.1.15,2013-03-11 10:26:00,
2013-03-11 06:32:00,43.6,32.2,30.21,SW,215,2.0,5.0,64,0.00,,,0.00,0,Wunderground v.1.15,2013-03-11 10:32:00,
2013-03-11 06:38:00,43.3,32.7,30.22,South,171,2.0,5.0,66,0.00,,,0.00,0,Wunderground v.1.15,2013-03-11 10:38:00,
2013-03-11 06:44:00,43.3,33.1,30.22,SSW,195,3.0,5.0,67,0.00,,,0.00,0,Wunderground v.1.15,2013-03-11 10:44:00,
2013-03-11 06:49:00,43.2,33.3,30.22,SSW,196,3.0,5.0,68,0.00,,,0.00,0,Wunderground v.1.15,2013-03-11 10:49:00,
2013-03-11 06:55:00,43.0,33.2,30.22,SSW,200,4.0,6.0,68,0.00,,,0.00,0,Wunderground v.1.15,2013-03-11 10:55:00,
2013-03-11 07:00:00,42.8,33.7,30.22,SSW,198,3.0,3.0,70,0.00,,,0.00,0,Wunderground v.1.15,2013-03-11 11:00:00,
2013-03-11 07:06:00,42.7,33.9,30.22,SSW,203,3.0,3.0,71,0.00,,,0.00,0,Wunderground v.1.15,2013-03-11 11:06:00,
2013-03-11 07:11:00,42.6,33.9,30.22,SSW,201,1.0,2.0,71,0.00,,,0.00,0,Wunderground v.1.15,2013-03-11 11:11:00,
2013-03-11 07:17:00,42.5,34.1,30.22,ESE,107,1.0,4.0,72,0.00,,,0.00,0,Wunderground v.1.15,2013-03-11 11:17:00,
2013-03-11 07:23:00,42.5,34.1,30.22,SSW,209,2.0,6.0,72,0.00,,,0.00,5,Wunderground v.1.15,2013-03-11 11:23:00,
2013-03-11 07:29:00,42.4,34.4,30.22,South,173,3.0,6.0,73,0.00,,,0.00,7,Wunderground v.1.15,2013-03-11 11:29:00,
2013-03-11 07:34:00,42.4,34.4,30.21,South,176,4.0,7.0,73,0.00,,,0.00,12,Wunderground v.1.15,2013-03-11 11:34:00,
2013-03-11 07:39:00,42.5,34.8,30.21,South,173,4.0,7.0,74,0.00,,,0.00,19,Wunderground v.1.15,2013-03-11 11:39:00,
2013-03-11 07:45:00,42.4,34.7,30.22,South,191,4.0,5.0,74,0.00,,,0.00,23,Wunderground v.1.15,2013-03-11 11:45:00,
2013-03-11 07:50:00,42.3,34.9,30.22,South,188,4.0,4.0,75,0.00,,,0.00,28,Wunderground v.1.15,2013-03-11 11:50:00,
2013-03-11 07:56:00,42.0,34.6,30.22,South,169,4.0,4.0,75,0.00,,,0.00,28,Wunderground v.1.15,2013-03-11 11:56:00,
2013-03-11 08:02:00,41.9,34.9,30.22,South,173,4.0,5.0,76,0.00,,,0.00,39,Wunderground v.1.15,2013-03-11 12:02:00,
2013-03-11 08:08:00,41.8,35.1,30.21,South,170,4.0,6.0,77,0.00,,,0.00,46,Wunderground v.1.15,2013-03-11 12:08:00,
2013-03-11 08:14:00,41.6,34.9,30.21,South,185,3.0,4.0,77,0.00,,,0.00,53,Wunderground v.1.15,2013-03-11 12:14:00,
2013-03-11 08:19:00,41.6,34.9,30.22,NNW,346,2.0,4.0,77,0.00,,,0.00,56,Wunderground v.1.15,2013-03-11 12:19:00,
2013-03-11 08:25:00,41.9,35.2,30.22,NNE,30,1.0,4.0,77,0.00,,,0.00,56,Wunderground v.1.15,2013-03-11 12:25:00,
2013-03-11 08:31:00,42.1,35.7,30.22,NNE,25,1.0,1.0,78,0.00,,,0.00,65,Wunderground v.1.15,2013-03-11 12:31:00,
2013-03-11 08:36:00,42.3,35.6,30.22,North,10,1.0,2.0,77,0.00,,,0.00,81,Wunderground v.1.15,2013-03-11 12:36:00,
2013-03-11 08:42:00,42.5,35.8,30.22,NE,39,1.0,2.0,77,0.00,,,0.00,105,Wunderground v.1.15,2013-03-11 12:42:00,
2013-03-11 08:48:00,42.7,36.0,30.22,ENE,62,1.0,2.0,77,0.00,,,0.00,109,Wunderground v.1.15,2013-03-11 12:48:00,
2013-03-11 08:54:00,42.8,36.1,30.22,NE,37,1.0,3.0,77,0.00,,,0.00,97,Wunderground v.1.15,2013-03-11 12:54:00,
2013-03-11 08:59:00,43.0,36.0,30.22,ENE,70,1.0,3.0,76,0.00,,,0.00,107,Wunderground v.1.15,2013-03-11 12:59:00,
2013-03-11 09:04:00,43.2,36.1,30.22,South,180,2.0,2.0,76,0.00,,,0.00,125,Wunderground v.1.15,2013-03-11 13:04:00,
2013-03-11 09:10:00,43.3,36.2,30.22,ESE,111,1.0,1.0,76,0.00,,,0.00,127,Wunderground v.1.15,2013-03-11 13:10:00,
2013-03-11 09:15:00,43.5,36.4,30.22,SE,141,1.0,4.0,76,0.00,,,0.00,123,Wunderground v.1.15,2013-03-11 13:15:00,
2013-03-11 09:20:00,43.7,36.3,30.22,South,180,2.0,2.0,75,0.00,,,0.00,139,Wunderground v.1.15,2013-03-11 13:20:00,
2013-03-11 09:27:00,43.9,36.5,30.22,South,172,1.0,2.0,75,0.00,,,0.00,137,Wunderground v.1.15,2013-03-11 13:27:00,
2013-03-11 09:32:00,44.1,36.7,30.21,SSW,201,1.0,3.0,75,0.00,,,0.00,109,Wunderground v.1.15,2013-03-11 13:32:00,
2013-03-11 09:38:00,44.2,36.4,30.22,South,182,2.0,5.0,74,0.00,,,0.00,107,Wunderground v.1.15,2013-03-11 13:38:00,
2013-03-11 09:43:00,44.4,36.6,30.22,South,173,2.0,4.0,74,0.00,,,0.00,127,Wunderground v.1.15,2013-03-11 13:43:00,
2013-03-11 09:50:00,44.7,36.6,30.22,SE,139,2.0,4.0,73,0.00,,,0.00,132,Wunderground v.1.15,2013-03-11 13:50:00,
2013-03-11 09:56:00,45.0,36.5,30.23,SE,136,4.0,6.0,72,0.00,,,0.00,144,Wunderground v.1.15,2013-03-11 13:56:00,
2013-03-11 10:02:00,45.4,36.9,30.22,SSE,149,5.0,5.0,72,0.00,,,0.00,156,Wunderground v.1.15,2013-03-11 14:02:00,
2013-03-11 10:08:00,45.5,37.0,30.22,SSE,167,4.0,5.0,72,0.00,,,0.00,169,Wunderground v.1.15,2013-03-11 14:08:00,
2013-03-11 10:14:00,45.7,37.2,30.22,SE,142,4.0,6.0,72,0.00,,,0.00,193,Wunderground v.1.15,2013-03-11 14:14:00,
2013-03-11 10:20:00,45.9,37.0,30.22,SSE,161,5.0,5.0,71,0.00,,,0.00,192,Wunderground v.1.15,2013-03-11 14:20:00,
2013-03-11 10:25:00,46.1,37.2,30.22,SSE,155,4.0,6.0,71,0.00,,,0.00,185,Wunderground v.1.15,2013-03-11 14:25:00,
2013-03-11 10:30:00,46.1,37.2,30.21,SSE,154,5.0,7.0,71,0.00,,,0.00,156,Wunderground v.1.15,2013-03-11 14:30:00,
2013-03-11 10:36:00,46.2,37.3,30.21,SSE,164,6.0,9.0,71,0.00,,,0.00,130,Wunderground v.1.15,2013-03-11 14:36:00,
2013-03-11 10:42:00,46.1,36.9,30.21,SSE,159,6.0,7.0,70,0.00,,,0.00,132,Wunderground v.1.15,2013-03-11 14:42:00,
2013-03-11 10:47:00,46.1,36.9,30.21,SSE,157,7.0,8.0,70,0.00,,,0.00,135,Wunderground v.1.15,2013-03-11 14:47:00,
2013-03-11 10:52:00,46.1,36.9,30.21,SSE,162,6.0,7.0,70,0.00,,,0.00,134,Wunderground v.1.15,2013-03-11 14:52:00,
2013-03-11 10:58:00,46.2,37.0,30.20,SE,142,6.0,11.0,70,0.00,,,0.00,137,Wunderground v.1.15,2013-03-11 14:58:00,
2013-03-11 11:04:00,46.3,37.0,30.20,SE,146,7.0,9.0,70,0.00,,,0.00,134,Wunderground v.1.15,2013-03-11 15:04:00,
2013-03-11 11:10:00,46.5,37.2,30.20,SE,141,6.0,6.0,70,0.00,,,0.00,137,Wunderground v.1.15,2013-03-11 15:10:00,
2013-03-11 11:15:00,46.7,37.4,30.20,SSE,159,5.0,9.0,70,0.00,,,0.00,149,Wunderground v.1.15,2013-03-11 15:15:00,
2013-03-11 11:21:00,46.8,37.5,30.20,South,170,6.0,10.0,70,0.00,,,0.00,174,Wunderground v.1.15,2013-03-11 15:21:00,
2013-03-11 11:27:00,47.1,38.2,30.20,SSE,148,6.0,10.0,71,0.00,,,0.00,250,Wunderground v.1.15,2013-03-11 15:27:00,
2013-03-11 11:33:00,47.5,38.2,30.20,SSE,157,6.0,7.0,70,0.00,,,0.00,279,Wunderground v.1.15,2013-03-11 15:33:00,
2013-03-11 11:39:00,47.7,38.4,30.19,SE,130,6.0,8.0,70,0.00,,,0.00,265,Wunderground v.1.15,2013-03-11 15:39:00,
2013-03-11 11:45:00,47.9,38.6,30.19,SE,144,6.0,11.0,70,0.00,,,0.00,262,Wunderground v.1.15,2013-03-11 15:45:00,
2013-03-11 11:51:00,48.3,38.6,30.19,SE,144,6.0,6.0,69,0.00,,,0.00,260,Wunderground v.1.15,2013-03-11 15:51:00,
2013-03-11 11:57:00,48.5,38.4,30.19,South,172,6.0,9.0,68,0.00,,,0.00,246,Wunderground v.1.15,2013-03-11 15:57:00,
2013-03-11 12:02:00,48.7,38.6,30.18,SSE,150,6.0,10.0,68,0.00,,,0.00,246,Wunderground v.1.15,2013-03-11 16:02:00,
2013-03-11 12:08:00,48.9,38.4,30.19,SSE,159,6.0,10.0,67,0.00,,,0.00,244,Wunderground v.1.15,2013-03-11 16:08:00,
2013-03-11 12:14:00,49.1,38.6,30.19,SSE,161,6.0,8.0,67,0.00,,,0.00,251,Wunderground v.1.15,2013-03-11 16:14:00,
2013-03-11 12:20:00,49.6,38.3,30.19,SE,132,5.0,6.0,65,0.00,,,0.00,295,Wunderground v.1.15,2013-03-11 16:20:00,
2013-03-11 12:26:00,49.8,38.5,30.19,SE,129,5.0,6.0,65,0.00,,,0.00,346,Wunderground v.1.15,2013-03-11 16:26:00,
2013-03-11 12:32:00,50.1,38.4,30.19,SSE,157,6.0,9.0,64,0.00,,,0.00,469,Wunderground v.1.15,2013-03-11 16:32:00,
2013-03-11 12:37:00,50.6,38.9,30.19,SE,139,6.0,10.0,64,0.00,,,0.00,413,Wunderground v.1.15,2013-03-11 16:37:00,
2013-03-11 12:43:00,50.9,38.7,30.19,ESE,103,5.0,7.0,63,0.00,,,0.00,350,Wunderground v.1.15,2013-03-11 16:43:00,
2013-03-11 12:48:00,51.2,38.6,30.19,SE,130,5.0,7.0,62,0.00,,,0.00,297,Wunderground v.1.15,2013-03-11 16:48:00,
2013-03-11 12:53:00,51.4,38.4,30.18,SSE,151,5.0,7.0,61,0.00,,,0.00,313,Wunderground v.1.15,2013-03-11 16:53:00,
2013-03-11 12:58:00,51.5,38.1,30.18,SE,132,5.0,7.0,60,0.00,,,0.00,376,Wunderground v.1.15,2013-03-11 16:58:00,
2013-03-11 13:04:00,51.6,38.2,30.18,ESE,113,5.0,8.0,60,0.00,,,0.00,251,Wunderground v.1.15,2013-03-11 17:04:00,
2013-03-11 13:10:00,51.8,37.9,30.17,SSE,159,5.0,7.0,59,0.00,,,0.00,234,Wunderground v.1.15,2013-03-11 17:10:00,
2013-03-11 13:16:00,52.1,37.3,30.17,SE,125,6.0,8.0,57,0.00,,,0.00,241,Wunderground v.1.15,2013-03-11 17:16:00,
2013-03-11 13:21:00,52.2,37.4,30.17,SE,140,5.0,8.0,57,0.00,,,0.00,255,Wunderground v.1.15,2013-03-11 17:21:00,
2013-03-11 13:27:00,52.4,37.6,30.16,South,169,4.0,8.0,57,0.00,,,0.00,248,Wunderground v.1.15,2013-03-11 17:27:00,
2013-03-11 13:32:00,52.8,38.0,30.15,SSE,155,3.0,7.0,57,0.00,,,0.00,272,Wunderground v.1.15,2013-03-11 17:32:00,
2013-03-11 13:37:00,52.9,36.7,30.15,ESE,105,5.0,8.0,54,0.00,,,0.00,367,Wunderground v.1.15,2013-03-11 17:37:00,
2013-03-11 13:44:00,53.2,37.0,30.15,South,188,6.0,6.0,54,0.00,,,0.00,350,Wunderground v.1.15,2013-03-11 17:44:00,
2013-03-11 13:50:00,53.7,36.5,30.14,SSE,155,5.0,5.0,52,0.00,,,0.00,264,Wunderground v.1.15,2013-03-11 17:50:00,
2013-03-11 13:55:00,53.8,35.6,30.14,SSE,154,5.0,8.0,50,0.00,,,0.00,237,Wunderground v.1.15,2013-03-11 17:55:00,
2013-03-11 14:00:00,53.9,35.2,30.14,SE,140,6.0,6.0,49,0.00,,,0.00,297,Wunderground v.1.15,2013-03-11 18:00:00,
2013-03-11 14:07:00,54.1,35.3,30.14,SSE,155,6.0,6.0,49,0.00,,,0.00,378,Wunderground v.1.15,2013-03-11 18:07:00,
2013-03-11 14:12:00,54.5,34.7,30.13,SSE,150,6.0,6.0,47,0.00,,,0.00,369,Wunderground v.1.15,2013-03-11 18:12:00,
2013-03-11 14:17:00,55.0,33.5,30.13,South,173,5.0,9.0,44,0.00,,,0.00,397,Wunderground v.1.15,2013-03-11 18:17:00,
2013-03-11 14:23:00,55.2,33.6,30.12,South,184,5.0,8.0,44,0.00,,,0.00,364,Wunderground v.1.15,2013-03-11 18:23:00,
2013-03-11 14:29:00,55.5,33.9,30.12,South,184,5.0,9.0,44,0.00,,,0.00,357,Wunderground v.1.15,2013-03-11 18:29:00,
2013-03-11 14:35:00,55.7,33.5,30.12,SSE,148,5.0,10.0,43,0.00,,,0.00,350,Wunderground v.1.15,2013-03-11 18:35:00,
2013-03-11 14:40:00,56.0,31.4,30.11,SSE,155,5.0,10.0,39,0.00,,,0.00,422,Wunderground v.1.15,2013-03-11 18:40:00,
2013-03-11 14:45:00,56.5,29.1,30.11,South,173,6.0,12.0,35,0.00,,,0.00,348,Wunderground v.1.15,2013-03-11 18:45:00,
2013-03-11 14:52:00,56.6,29.9,30.10,SSE,164,7.0,9.0,36,0.00,,,0.00,315,Wunderground v.1.15,2013-03-11 18:52:00,
2013-03-11 14:57:00,56.7,31.4,30.09,SE,138,6.0,9.0,38,0.00,,,0.00,330,Wunderground v.1.15,2013-03-11 18:57:00,
2013-03-11 15:02:00,56.8,30.8,30.09,SE,140,5.0,7.0,37,0.00,,,0.00,330,Wunderground v.1.15,2013-03-11 19:02:00,
2013-03-11 15:08:00,57.1,31.7,30.09,SSE,149,6.0,7.0,38,0.00,,,0.00,309,Wunderground v.1.15,2013-03-11 19:08:00,
2013-03-11 15:13:00,57.2,30.5,30.09,SSE,150,5.0,6.0,36,0.00,,,0.00,285,Wunderground v.1.15,2013-03-11 19:13:00,
2013-03-11 15:18:00,57.3,30.5,30.09,South,188,5.0,6.0,36,0.00,,,0.00,264,Wunderground v.1.15,2013-03-11 19:18:00,
2013-03-11 15:24:00,57.2,30.5,30.09,SSE,150,5.0,8.0,36,0.00,,,0.00,246,Wunderground v.1.15,2013-03-11 19:24:00,
2013-03-11 15:29:00,57.0,31.0,30.08,South,169,6.0,8.0,37,0.00,,,0.00,218,Wunderground v.1.15,2013-03-11 19:29:00,
2013-03-11 15:34:00,56.8,30.8,30.08,SSE,167,6.0,8.0,37,0.00,,,0.00,204,Wunderground v.1.15,2013-03-11 19:34:00,
2013-03-11 15:40:00,56.8,31.4,30.08,South,181,6.0,7.0,38,0.00,,,0.00,227,Wunderground v.1.15,2013-03-11 19:40:00,
2013-03-11 15:45:00,56.8,31.4,30.07,SE,128,6.0,9.0,38,0.00,,,0.00,221,Wunderground v.1.15,2013-03-11 19:45:00,
2013-03-11 15:50:00,56.8,31.4,30.07,SSE,157,7.0,7.0,38,0.00,,,0.00,204,Wunderground v.1.15,2013-03-11 19:50:00,
2013-03-11 15:57:00,56.7,32.0,30.07,SE,146,7.0,9.0,39,0.00,,,0.00,163,Wunderground v.1.15,2013-03-11 19:57:00,
2013-03-11 16:02:00,56.6,31.9,30.07,South,179,6.0,6.0,39,0.00,,,0.00,156,Wunderground v.1.15,2013-03-11 20:02:00,
2013-03-11 16:09:00,56.8,32.1,30.07,South,169,6.0,8.0,39,0.00,,,0.00,186,Wunderground v.1.15,2013-03-11 20:09:00,
2013-03-11 16:15:00,57.0,32.3,30.07,SSW,193,6.0,9.0,39,0.00,,,0.00,225,Wunderground v.1.15,2013-03-11 20:15:00,
2013-03-11 16:21:00,57.0,32.9,30.06,South,187,7.0,7.0,40,0.00,,,0.00,179,Wunderground v.1.15,2013-03-11 20:21:00,
2013-03-11 16:27:00,57.1,33.0,30.06,SSW,209,5.0,7.0,40,0.00,,,0.00,183,Wunderground v.1.15,2013-03-11 20:27:00,
2013-03-11 16:32:00,57.1,33.6,30.06,SSE,168,5.0,7.0,41,0.00,,,0.00,174,Wunderground v.1.15,2013-03-11 20:32:00,
2013-03-11 16:38:00,57.2,33.7,30.06,SE,143,5.0,8.0,41,0.00,,,0.00,192,Wunderground v.1.15,2013-03-11 20:38:00,
2013-03-11 16:44:00,57.5,32.7,30.06,SSE,160,6.0,10.0,39,0.00,,,0.00,179,Wunderground v.1.15,2013-03-11 20:44:00,
2013-03-11 16:50:00,57.5,33.3,30.06,SSE,167,8.0,10.0,40,0.00,,,0.00,141,Wunderground v.1.15,2013-03-11 20:50:00,
2013-03-11 16:56:00,57.4,33.9,30.05,South,172,8.0,12.0,41,0.00,,,0.00,132,Wunderground v.1.15,2013-03-11 20:56:00,
2013-03-11 17:01:00,57.2,34.3,30.05,SSE,157,8.0,11.0,42,0.00,,,0.00,134,Wunderground v.1.15,2013-03-11 21:01:00,
2013-03-11 17:06:00,57.2,34.9,30.05,South,175,8.0,11.0,43,0.00,,,0.00,109,Wunderground v.1.15,2013-03-11 21:06:00,
2013-03-11 17:11:00,57.1,34.8,30.05,SE,145,8.0,8.0,43,0.00,,,0.00,109,Wunderground v.1.15,2013-03-11 21:11:00,
2013-03-11 17:17:00,57.2,35.5,30.05,SSE,161,7.0,9.0,44,0.00,,,0.00,123,Wunderground v.1.15,2013-03-11 21:17:00,
2013-03-11 17:22:00,57.2,36.0,30.05,SSE,151,6.0,9.0,45,0.00,,,0.00,109,Wunderground v.1.15,2013-03-11 21:22:00,
2013-03-11 17:28:00,57.1,37.0,30.05,SE,142,7.0,12.0,47,0.00,,,0.00,105,Wunderground v.1.15,2013-03-11 21:28:00,
2013-03-11 17:33:00,56.9,36.9,30.04,SSW,193,7.0,8.0,47,0.00,,,0.00,105,Wunderground v.1.15,2013-03-11 21:33:00,
2013-03-11 17:38:00,56.8,37.3,30.04,SSE,162,7.0,13.0,48,0.00,,,0.00,100,Wunderground v.1.15,2013-03-11 21:38:00,
2013-03-11 17:44:00,56.4,38.0,30.04,South,182,8.0,11.0,50,0.00,,,0.00,90,Wunderground v.1.15,2013-03-11 21:44:00,
2013-03-11 17:49:00,56.2,38.8,30.05,South,182,8.0,9.0,52,0.00,,,0.00,79,Wunderground v.1.15,2013-03-11 21:49:00,
2013-03-11 17:54:00,56.0,39.6,30.04,SSE,163,8.0,9.0,54,0.00,,,0.00,74,Wunderground v.1.15,2013-03-11 21:54:00,
2013-03-11 18:00:00,55.7,40.2,30.04,SSE,150,7.0,7.0,56,0.00,,,0.00,81,Wunderground v.1.15,2013-03-11 22:00:00,
2013-03-11 18:06:00,55.5,41.4,30.04,South,174,7.0,9.0,59,0.00,,,0.00,70,Wunderground v.1.15,2013-03-11 22:06:00,
2013-03-11 18:12:00,55.3,42.5,30.04,SE,144,7.0,11.0,62,0.00,,,0.00,54,Wunderground v.1.15,2013-03-11 22:12:00,
2013-03-11 18:17:00,55.1,42.7,30.05,SSW,201,8.0,11.0,63,0.00,,,0.00,46,Wunderground v.1.15,2013-03-11 22:17:00,
2013-03-11 18:22:00,55.0,43.4,30.05,SE,145,8.0,14.0,65,0.00,,,0.00,35,Wunderground v.1.15,2013-03-11 22:22:00,
2013-03-11 18:28:00,54.9,44.1,30.04,SSE,152,7.0,14.0,67,0.00,,,0.00,25,Wunderground v.1.15,2013-03-11 22:28:00,
2013-03-11 18:33:00,54.8,44.4,30.05,SSE,162,7.0,10.0,68,0.00,,,0.00,19,Wunderground v.1.15,2013-03-11 22:33:00,
2013-03-11 18:39:00,54.8,44.8,30.05,SE,138,8.0,11.0,69,0.00,,,0.00,12,Wunderground v.1.15,2013-03-11 22:39:00,
2013-03-11 18:44:00,54.7,44.7,30.05,SSW,212,8.0,9.0,69,0.00,,,0.00,9,Wunderground v.1.15,2013-03-11 22:44:00,
2013-03-11 18:50:00,54.7,45.1,30.06,SSE,152,7.0,7.0,70,0.00,,,0.00,7,Wunderground v.1.15,2013-03-11 22:50:00,
2013-03-11 18:56:00,54.7,45.1,30.06,SE,146,6.0,8.0,70,0.00,,,0.00,0,Wunderground v.1.15,2013-03-11 22:56:00,
2013-03-11 19:01:00,54.6,45.0,30.06,SSE,147,6.0,7.0,70,0.00,,,0.00,0,Wunderground v.1.15,2013-03-11 23:01:00,
2013-03-11 19:07:00,54.7,45.5,30.06,SSE,154,7.0,11.0,71,0.00,,,0.00,0,Wunderground v.1.15,2013-03-11 23:07:00,
2013-03-11 19:12:00,54.6,45.4,30.06,SE,138,7.0,8.0,71,0.00,,,0.00,0,Wunderground v.1.15,2013-03-11 23:12:00,
2013-03-11 19:17:00,54.6,45.4,30.07,SE,145,7.0,9.0,71,0.00,,,0.00,0,Wunderground v.1.15,2013-03-11 23:17:00,
2013-03-11 19:23:00,54.6,45.4,30.07,SSW,194,6.0,6.0,71,0.00,,,0.00,0,Wunderground v.1.15,2013-03-11 23:23:00,
2013-03-11 19:28:00,54.7,45.5,30.06,South,175,7.0,16.0,71,0.00,,,0.00,0,Wunderground v.1.15,2013-03-11 23:28:00,
2013-03-11 19:34:00,54.6,45.4,30.06,South,172,7.0,10.0,71,0.00,,,0.00,0,Wunderground v.1.15,2013-03-11 23:34:00,
2013-03-11 19:39:00,54.6,45.4,30.06,South,175,6.0,10.0,71,0.00,,,0.00,0,Wunderground v.1.15,2013-03-11 23:39:00,
2013-03-11 19:45:00,54.6,45.8,30.05,SE,132,7.0,10.0,72,0.00,,,0.00,0,Wunderground v.1.15,2013-03-11 23:45:00,
2013-03-11 19:50:00,54.7,45.8,30.05,SSE,162,7.0,11.0,72,0.00,,,0.00,0,Wunderground v.1.15,2013-03-11 23:50:00,
2013-03-11 19:55:00,54.7,45.8,30.04,SSE,167,8.0,11.0,72,0.00,,,0.00,0,Wunderground v.1.15,2013-03-11 23:55:00,
2013-03-11 20:02:00,54.5,46.0,30.04,SSE,163,6.0,10.0,73,0.00,,,0.00,0,Wunderground v.1.15,2013-03-12 00:02:00,
2013-03-11 20:07:00,54.5,46.0,30.05,SE,126,7.0,10.0,73,0.00,,,0.00,0,Wunderground v.1.15,2013-03-12 00:07:00,
2013-03-11 20:13:00,54.5,46.0,30.05,SSE,150,6.0,9.0,73,0.00,,,0.00,0,Wunderground v.1.15,2013-03-12 00:13:00,
2013-03-11 20:18:00,54.5,46.0,30.05,SE,140,6.0,9.0,73,0.00,,,0.00,0,Wunderground v.1.15,2013-03-12 00:18:00,
2013-03-11 20:24:00,54.6,46.1,30.04,SSE,164,6.0,9.0,73,0.00,,,0.00,0,Wunderground v.1.15,2013-03-12 00:24:00,
2013-03-11 20:30:00,54.6,46.1,30.05,SE,130,6.0,7.0,73,0.00,,,0.00,0,Wunderground v.1.15,2013-03-12 00:30:00,
2013-03-11 20:36:00,54.7,46.2,30.05,South,178,5.0,8.0,73,0.00,,,0.00,0,Wunderground v.1.15,2013-03-12 00:36:00,
2013-03-11 20:42:00,54.8,46.3,30.05,SE,127,7.0,8.0,73,0.00,,,0.00,0,Wunderground v.1.15,2013-03-12 00:42:00,
2013-03-11 20:48:00,54.8,46.3,30.06,SE,140,8.0,8.0,73,0.00,,,0.00,0,Wunderground v.1.15,2013-03-12 00:48:00,
2013-03-11 20:53:00,54.8,46.3,30.06,South,185,7.0,11.0,73,0.00,,,0.00,0,Wunderground v.1.15,2013-03-12 00:53:00,
2013-03-11 20:59:00,54.8,45.9,30.06,South,191,8.0,13.0,72,0.00,,,0.00,0,Wunderground v.1.15,2013-03-12 00:59:00,
2013-03-11 21:05:00,54.8,46.3,30.05,SE,144,8.0,9.0,73,0.00,,,0.00,0,Wunderground v.1.15,2013-03-12 01:05:00,
2013-03-11 21:10:00,54.7,46.2,30.05,SSE,161,8.0,8.0,73,0.00,,,0.00,0,Wunderground v.1.15,2013-03-12 01:10:00,
2013-03-11 21:16:00,54.5,46.7,30.04,SE,139,8.0,11.0,75,0.00,,,0.00,0,Wunderground v.1.15,2013-03-12 01:16:00,
2013-03-11 21:22:00,54.4,46.3,30.04,South,172,9.0,11.0,74,0.00,,,0.00,0,Wunderground v.1.15,2013-03-12 01:22:00,
2013-03-11 21:28:00,54.4,46.6,30.04,SSE,163,9.0,19.0,75,0.00,,,0.00,0,Wunderground v.1.15,2013-03-12 01:28:00,
2013-03-11 21:33:00,54.4,46.6,30.03,SSE,157,8.0,9.0,75,0.00,,,0.00,0,Wunderground v.1.15,2013-03-12 01:33:00,
2013-03-11 21:39:00,54.5,46.7,30.02,SSE,148,8.0,16.0,75,0.00,,,0.00,0,Wunderground v.1.15,2013-03-12 01:39:00,
2013-03-11 21:45:00,54.5,46.7,30.02,SSW,206,8.0,9.0,75,0.00,,,0.00,0,Wunderground v.1.15,2013-03-12 01:45:00,
2013-03-11 21:51:00,54.5,46.7,30.00,SSE,149,8.0,11.0,75,0.00,,,0.00,0,Wunderground v.1.15,2013-03-12 01:51:00,
2013-03-11 21:57:00,54.6,47.2,30.00,SSE,154,10.0,14.0,76,0.00,,,0.00,0,Wunderground v.1.15,2013-03-12 01:57:00,
2013-03-11 22:03:00,54.6,47.2,30.00,SSE,153,9.0,10.0,76,0.00,,,0.00,0,Wunderground v.1.15,2013-03-12 02:03:00,
2013-03-11 22:08:00,54.7,46.9,29.99,SSE,149,10.0,25.0,75,0.00,,,0.00,0,Wunderground v.1.15,2013-03-12 02:08:00,
2013-03-11 22:14:00,54.7,46.9,29.98,SSE,156,12.0,15.0,75,0.00,,,0.00,0,Wunderground v.1.15,2013-03-12 02:14:00,
2013-03-11 22:20:00,54.7,47.3,29.99,SE,128,12.0,14.0,76,0.00,,,0.00,0,Wunderground v.1.15,2013-03-12 02:20:00,
2013-03-11 22:25:00,54.6,47.2,29.99,SSW,194,12.0,19.0,76,0.00,,,0.00,0,Wunderground v.1.15,2013-03-12 02:25:00,
2013-03-11 22:30:00,54.5,47.1,30.00,SSE,161,12.0,12.0,76,0.00,,,0.00,0,Wunderground v.1.15,2013-03-12 02:30:00,
2013-03-11 22:35:00,54.6,47.2,30.00,SSE,153,11.0,16.0,76,0.00,,,0.00,0,Wunderground v.1.15,2013-03-12 02:35:00,
2013-03-11 22:41:00,54.5,47.4,29.99,South,177,10.0,12.0,77,0.00,,,0.00,0,Wunderground v.1.15,2013-03-12 02:41:00,
2013-03-11 22:46:00,54.5,47.4,29.99,SSE,161,8.0,12.0,77,0.00,,,0.00,0,Wunderground v.1.15,2013-03-12 02:46:00,
2013-03-11 22:51:00,54.6,47.5,30.00,SSE,153,9.0,13.0,77,0.00,,,0.00,0,Wunderground v.1.15,2013-03-12 02:51:00,
2013-03-11 22:57:00,54.8,47.7,30.00,South,180,9.0,13.0,77,0.00,,,0.00,0,Wunderground v.1.15,2013-03-12 02:57:00,
2013-03-11 23:02:00,54.9,47.5,30.00,SSE,153,9.0,16.0,76,0.00,,,0.00,0,Wunderground v.1.15,2013-03-12 03:02:00,
2013-03-11 23:08:00,55.0,47.6,30.01,SE,140,10.0,16.0,76,0.00,,,0.00,0,Wunderground v.1.15,2013-03-12 03:08:00,
2013-03-11 23:13:00,55.1,47.7,30.00,SE,143,12.0,15.0,76,0.00,,,0.00,0,Wunderground v.1.15,2013-03-12 03:13:00,
2013-03-11 23:19:00,55.1,47.7,30.00,SSE,167,12.0,15.0,76,0.00,,,0.00,0,Wunderground v.1.15,2013-03-12 03:19:00,
2013-03-11 23:25:00,55.0,47.6,29.99,SE,144,11.0,16.0,76,0.00,,,0.00,0,Wunderground v.1.15,2013-03-12 03:25:00,
2013-03-11 23:30:00,55.1,47.7,29.99,SSW,211,11.0,21.0,76,0.00,,,0.00,0,Wunderground v.1.15,2013-03-12 03:30:00,
2013-03-11 23:36:00,55.1,47.7,29.98,SE,132,11.0,12.0,76,0.00,,,0.00,0,Wunderground v.1.15,2013-03-12 03:36:00,
2013-03-11 23:42:00,55.0,47.6,29.98,SSE,150,10.0,10.0,76,0.00,,,0.00,0,Wunderground v.1.15,2013-03-12 03:42:00,
2013-03-11 23:47:00,55.0,47.9,29.97,SE,146,10.0,18.0,77,0.00,,,0.00,0,Wunderground v.1.15,2013-03-12 03:47:00,
2013-03-11 23:53:00,54.9,48.2,29.97,SSE,151,10.0,19.0,78,0.00,,,0.00,0,Wunderground v.1.15,2013-03-12 03:53:00,
2013-03-11 23:58:00,54.7,48.0,29.96,ESE,122,11.0,19.0,78,0.00,,,0.00,0,Wunderground v.1.15,2013-03-12 03:58:00,